Powrót do katalogu

STARLINK-3320

AktywnyŁącznośćVLEO
NORAD 50839·PAYLOAD·🇺🇸 United States

Wystrzelony Jan 6, 2022 z Cape Canaveral Space Force Station

Loading…

Następne Przeloty (najbliższe 24 godziny)

TLE

ŚwieżeSource: CelesTrak SupGP

Epoka: Sep 14, 2026, 19:56 UTC

1 50839C 22001AN  26257.83104167  .00054324  00000+0  17473-2 0  2570
2 50839  53.1589  36.1547 0001053  80.2522  62.4053 15.31668518    17

Śledź STARLINK-3320 w czasie rzeczywistym z AllMySat

Download on the App Store